| time (UTC) | temp F | wind direction | speed MPH | gust MPH | rain 1hr in | rain 24hr in | rain mn in | humidity % | barometer mb |
| 20260504032927 | 57 | 306 | 0.0 | 0.0 | 0.00 | 0.00 | 0.00 | 100 | 1019.9 |
| 20260504032435 | 57 | 308 | 0.0 | 0.0 | 0.00 | 0.00 | 0.00 | 100 | 1019.9 |
| 20260504031948 | 56 | 305 | 0.0 | 0.0 | 0.00 | 0.00 | 0.00 | 100 | 1019.9 |
| 20260504031440 | 56 | 305 | 0.0 | 0.0 | 0.00 | 0.00 | 0.00 | 100 | 1019.7 |
| 20260504030947 | 56 | 304 | 0.0 | 0.0 | 0.00 | 0.00 | 0.00 | 100 | 1019.7 |
| 20260504030425 | 56 | 310 | 0.0 | 0.0 | 0.00 | 0.00 | 0.00 | 85 | 1019.8 |
| 20260504025935 | 56 | 304 | 0.0 | 0.0 | 0.00 | 0.00 | 0.00 | 71 | 1019.8 |
| 20260504025432 | 57 | 311 | 1.0 | 0.0 | 0.00 | 0.00 | 0.00 | 100 | 1019.8 |
| 20260504024949 | 56 | 302 | 1.0 | 0.0 | 0.00 | 0.00 | 0.00 | 63 | 1019.7 |
| 20260504024440 | 57 | 303 | 1.0 | 0.0 | 0.00 | 0.00 | 0.00 | 73 | 1019.8 |
| 20260504023927 | 58 | 307 | 2.0 | 0.0 | 0.00 | 0.00 | 0.00 | 100 | 1019.9 |
| 20260504023440 | 57 | 302 | 0.0 | 0.0 | 0.00 | 0.00 | 0.00 | 100 | 1019.9 |
| 20260504022935 | 57 | 307 | 0.0 | 0.0 | 0.00 | 0.00 | 0.00 | 99 | 1020.0 |
| 20260504022440 | 57 | 306 | 0.0 | 0.0 | 0.00 | 0.00 | 0.00 | 96 | 1020.0 |
| 20260504021936 | 57 | 306 | 0.0 | 0.0 | 0.00 | 0.00 | 0.00 | 82 | 1019.9 |
| 20260504021455 | 57 | 302 | 0.0 | 0.0 | 0.00 | 0.00 | 0.00 | 78 | 1020.1 |
| 20260504021007 | 57 | 303 | 0.0 | 0.0 | 0.00 | 0.00 | 0.00 | 55 | 1019.9 |
| 20260504020430 | 57 | 302 | 0.0 | 0.0 | 0.00 | 0.00 | 0.00 | 100 | 1020.1 |
| 20260504015928 | 57 | 303 | 0.0 | 0.0 | 0.00 | 0.00 | 0.00 | 100 | 1019.9 |
| 20260504015437 | 57 | 302 | 0.0 | 0.0 | 0.00 | 0.00 | 0.00 | 100 | 1020.0 |
| 20260504014933 | 57 | 305 | 0.0 | 0.0 | 0.00 | 0.00 | 0.00 | 100 | 1019.8 |
| 20260504014432 | 57 | 304 | 0.0 | 0.0 | 0.00 | 0.00 | 0.00 | 100 | 1019.9 |
| 20260504013937 | 57 | 301 | 0.0 | 0.0 | 0.00 | 0.00 | 0.00 | 100 | 1019.8 |
| 20260504013437 | 57 | 306 | 1.0 | 0.0 | 0.00 | 0.00 | 0.00 | 100 | 1019.7 |
| 20260504012952 | 57 | 302 | 1.0 | 0.0 | 0.00 | 0.00 | 0.00 | 100 | 1019.8 |
| 20260504012439 | 57 | 305 | 2.0 | 0.0 | 0.00 | 0.00 | 0.00 | 93 | 1019.9 |
| 20260504011936 | 57 | 299 | 2.0 | 0.0 | 0.00 | 0.00 | 0.00 | 85 | 1019.8 |
| 20260504011451 | 58 | 302 | 0.0 | 0.0 | 0.00 | 0.00 | 0.00 | 92 | 1019.9 |
| 20260504011006 | 58 | 300 | 2.0 | 0.0 | 0.00 | 0.00 | 0.00 | 62 | 1019.8 |
| 20260504010448 | 58 | 297 | 1.0 | 0.0 | 0.00 | 0.00 | 0.00 | 30 | 1019.8 |
| 20260504005928 | 59 | 300 | 2.0 | 0.0 | 0.00 | 0.00 | 0.00 | 28 | 1019.8 |
| 20260504005457 | 59 | 299 | 1.0 | 0.0 | 0.00 | 0.00 | 0.00 | 30 | 1019.9 |
| 20260504004940 | 59 | 302 | 2.0 | 0.0 | 0.00 | 0.00 | 0.00 | 24 | 1019.9 |
| 20260504004429 | 60 | 296 | 2.0 | 0.0 | 0.00 | 0.00 | 0.00 | 30 | 1019.9 |
| 20260504003950 | 60 | 296 | 0.0 | 0.0 | 0.00 | 0.00 | 0.00 | 65 | 1019.9 |
| 20260504003436 | 60 | 298 | 0.0 | 0.0 | 0.00 | 0.00 | 0.00 | 97 | 1019.9 |
| 20260504002924 | 60 | 304 | 0.0 | 0.0 | 0.00 | 0.00 | 0.00 | 83 | 1019.9 |
| 20260504002429 | 59 | 298 | 0.0 | 0.0 | 0.00 | 0.00 | 0.00 | 51 | 1019.9 |
| 20260504001936 | 59 | 303 | 0.0 | 0.0 | 0.00 | 0.00 | 0.00 | 32 | 1019.9 |
| 20260504001502 | 60 | 302 | 0.0 | 0.0 | 0.00 | 0.00 | 0.00 | 29 | 1019.9 |
| 20260504000946 | 60 | 302 | 0.0 | 0.0 | 0.00 | 0.00 | 0.00 | 22 | 1019.9 |
| 20260504000426 | 60 | 302 | 0.0 | 0.0 | 0.00 | 0.00 | 0.00 | 14 | 1020.0 |
| 20260503235934 | 60 | 298 | 0.0 | 0.0 | 0.00 | 0.00 | 0.00 | 3 | 1019.9 |
| 20260503235437 | 60 | 295 | 2.0 | 0.0 | 0.00 | 0.00 | 0.00 | 100 | 1019.9 |
| 20260503234945 | 61 | 302 | 2.0 | 0.0 | 0.00 | 0.00 | 0.00 | 100 | 1020.1 |
| 20260503234434 | 62 | 240 | 0.0 | 0.0 | 0.00 | 0.00 | 0.00 | 1 | 1020.0 |
| 20260503233948 | 62 | 207 | 0.0 | 0.0 | 0.00 | 0.00 | 0.00 | 11 | 1020.1 |
| 20260503233440 | 62 | 212 | 1.0 | 0.0 | 0.00 | 0.00 | 0.00 | 9 | 1020.2 |
| 20260503232943 | 62 | 213 | 2.0 | 0.0 | 0.00 | 0.00 | 0.00 | 11 | 1020.0 |
| 20260503232424 | 62 | 217 | 0.0 | 0.0 | 0.00 | 0.00 | 0.00 | 14 | 1019.9 |
| 20260503231941 | 62 | 209 | 3.0 | 0.0 | 0.00 | 0.00 | 0.00 | 15 | 1020.0 |
| 20260503231455 | 62 | 221 | 2.0 | 0.0 | 0.00 | 0.00 | 0.00 | 16 | 1019.9 |
| 20260503230947 | 62 | 202 | 3.0 | 0.0 | 0.00 | 0.00 | 0.00 | 16 | 1020.1 |
| 20260503230439 | 62 | 223 | 7.0 | 0.0 | 0.00 | 0.00 | 0.00 | 17 | 1020.0 |
| 20260503225929 | 62 | 200 | 5.0 | 0.0 | 0.00 | 0.00 | 0.00 | 18 | 1020.1 |
| 20260503225501 | 63 | 212 | 2.0 | 0.0 | 0.00 | 0.00 | 0.00 | 18 | 1020.2 |
| 20260503224956 | 62 | 199 | 5.0 | 0.0 | 0.00 | 0.00 | 0.00 | 14 | 1020.2 |
| 20260503224427 | 63 | 205 | 4.0 | 0.0 | 0.00 | 0.00 | 0.00 | 13 | 1020.2 |
| 20260503223942 | 62 | 198 | 4.0 | 0.0 | 0.00 | 0.00 | 0.00 | 15 | 1020.2 |
| 20260503223436 | 62 | 189 | 5.0 | 0.0 | 0.00 | 0.00 | 0.00 | 15 | 1020.1 |
| 20260503222926 | 63 | 193 | 6.0 | 0.0 | 0.00 | 0.00 | 0.00 | 12 | 1020.2 |
| 20260503222439 | 63 | 181 | 7.0 | 0.0 | 0.00 | 0.00 | 0.00 | 9 | 1020.1 |
| 20260503221936 | 63 | 180 | 7.0 | 0.0 | 0.00 | 0.00 | 0.00 | 5 | 1020.1 |
| 20260503221436 | 63 | 177 | 5.0 | 0.0 | 0.00 | 0.00 | 0.00 | 1 | 1020.1 |
| 20260503220945 | 63 | 162 | 4.0 | 0.0 | 0.00 | 0.00 | 0.00 | 100 | 1020.0 |
| 20260503220459 | 63 | 199 | 5.0 | 0.0 | 0.00 | 0.00 | 0.00 | 100 | 1020.0 |
| 20260503215957 | 63 | 208 | 4.0 | 0.0 | 0.00 | 0.00 | 0.00 | 100 | 1019.9 |
| 20260503215434 | 63 | 222 | 3.0 | 0.0 | 0.00 | 0.00 | 0.00 | 100 | 1020.0 |
| 20260503214930 | 63 | 248 | 0.0 | 0.0 | 0.00 | 0.00 | 0.00 | 100 | 1019.9 |
| 20260503214426 | 63 | 241 | 0.0 | 0.0 | 0.00 | 0.00 | 0.00 | 100 | 1019.8 |
| 20260503213939 | 63 | 246 | 0.0 | 0.0 | 0.00 | 0.00 | 0.00 | 100 | 1019.7 |
| 20260503213436 | 64 | 246 | 1.0 | 0.0 | 0.00 | 0.00 | 0.00 | 100 | 1019.8 |
| 20260503212930 | 64 | 248 | 1.0 | 0.0 | 0.00 | 0.00 | 0.00 | 100 | 1019.6 |
| 20260503212436 | 63 | 242 | 2.0 | 0.0 | 0.00 | 0.00 | 0.00 | 100 | 1019.6 |
| 20260503211926 | 64 | 256 | 2.0 | 0.0 | 0.00 | 0.00 | 0.00 | 100 | 1019.7 |
| 20260503211433 | 64 | 311 | 0.0 | 0.0 | 0.00 | 0.00 | 0.00 | 100 | 1019.7 |
| 20260503210945 | 64 | 20 | 0.0 | 0.0 | 0.00 | 0.00 | 0.00 | 100 | 1019.8 |
| 20260503210440 | 64 | 23 | 0.0 | 0.0 | 0.00 | 0.00 | 0.00 | 100 | 1019.7 |
| 20260503205934 | 64 | 21 | 0.0 | 0.0 | 0.00 | 0.00 | 0.00 | 100 | 1019.7 |
| 20260503205441 | 64 | 20 | 0.0 | 0.0 | 0.00 | 0.00 | 0.00 | 100 | 1019.7 |
| 20260503204954 | 64 | 23 | 0.0 | 0.0 | 0.00 | 0.00 | 0.00 | 100 | 1019.8 |
| 20260503204456 | 64 | 23 | 1.0 | 0.0 | 0.00 | 0.00 | 0.00 | 100 | 1019.8 |
| 20260503203926 | 64 | 24 | 0.0 | 0.0 | 0.00 | 0.00 | 0.00 | 100 | 1019.8 |
| 20260503203436 | 64 | 23 | 2.0 | 0.0 | 0.00 | 0.00 | 0.00 | 100 | 1019.8 |
| 20260503202930 | 64 | 30 | 2.0 | 0.0 | 0.00 | 0.00 | 0.00 | 100 | 1019.8 |
| 20260503202443 | 64 | 9 | 3.0 | 0.0 | 0.00 | 0.00 | 0.00 | 100 | 1019.7 |
| 20260503201936 | 64 | 338 | 4.0 | 0.0 | 0.00 | 0.00 | 0.00 | 100 | 1019.7 |
| 20260503201455 | 64 | 23 | 4.0 | 0.0 | 0.00 | 0.00 | 0.00 | 100 | 1019.7 |
| 20260503200946 | 64 | 27 | 2.0 | 0.0 | 0.00 | 0.00 | 0.00 | 100 | 1019.7 |
| 20260503200435 | 64 | 20 | 5.0 | 0.0 | 0.00 | 0.00 | 0.00 | 100 | 1019.7 |
| 20260503195928 | 64 | 20 | 2.0 | 0.0 | 0.00 | 0.00 | 0.00 | 100 | 1019.7 |
| 20260503195438 | 64 | 329 | 5.0 | 0.0 | 0.00 | 0.00 | 0.00 | 100 | 1019.5 |
| 20260503194949 | 65 | 305 | 4.0 | 0.0 | 0.00 | 0.00 | 0.00 | 100 | 1019.6 |
| 20260503194426 | 64 | 348 | 6.0 | 0.0 | 0.00 | 0.00 | 0.00 | 100 | 1019.7 |
| 20260503193956 | 65 | 13 | 4.0 | 0.0 | 0.00 | 0.00 | 0.00 | 100 | 1019.7 |
| 20260503193425 | 64 | 279 | 2.0 | 0.0 | 0.00 | 0.00 | 0.00 | 100 | 1019.5 |
| 20260503192938 | 64 | 271 | 6.0 | 0.0 | 0.00 | 0.00 | 0.00 | 100 | 1019.6 |
| 20260503192434 | 65 | 317 | 4.0 | 0.0 | 0.00 | 0.00 | 0.00 | 100 | 1019.4 |
| 20260503191941 | 64 | 312 | 4.0 | 0.0 | 0.00 | 0.00 | 0.00 | 100 | 1019.3 |
| 20260503191456 | 64 | 15 | 4.0 | 0.0 | 0.00 | 0.00 | 0.00 | 100 | 1019.3 |
| 20260503190946 | 65 | 330 | 4.0 | 0.0 | 0.00 | 0.00 | 0.00 | 100 | 1019.3 |
| 20260503190438 | 65 | 330 | 4.0 | 0.0 | 0.00 | 0.00 | 0.00 | 100 | 1019.3 |
| 20260503185933 | 65 | 301 | 3.0 | 0.0 | 0.00 | 0.00 | 0.00 | 100 | 1019.3 |
| 20260503185438 | 65 | 310 | 5.0 | 0.0 | 0.00 | 0.00 | 0.00 | 100 | 1019.3 |
| 20260503185013 | 65 | 323 | 6.0 | 0.0 | 0.00 | 0.00 | 0.00 | 100 | 1019.2 |
| 20260503184424 | 65 | 316 | 3.0 | 0.0 | 0.00 | 0.00 | 0.00 | 100 | 1019.2 |
| 20260503183934 | 65 | 291 | 2.0 | 0.0 | 0.00 | 0.00 | 0.00 | 100 | 1019.1 |
| 20260503183445 | 65 | 308 | 2.0 | 0.0 | 0.00 | 0.00 | 0.00 | 100 | 1019.1 |
| 20260503182958 | 65 | 354 | 4.0 | 0.0 | 0.00 | 0.00 | 0.00 | 100 | 1019.1 |
| 20260503182505 | 65 | 47 | 2.0 | 0.0 | 0.00 | 0.00 | 0.00 | 100 | 1019.1 |
| 20260503181937 | 65 | 35 | 1.0 | 0.0 | 0.00 | 0.00 | 0.00 | 100 | 1019.1 |
| 20260503181434 | 66 | 8 | 2.0 | 0.0 | 0.00 | 0.00 | 0.00 | 100 | 1019.2 |
| 20260503181007 | 66 | 26 | 0.0 | 0.0 | 0.00 | 0.00 | 0.00 | 100 | 1019.1 |
| 20260503180455 | 66 | 35 | 0.0 | 0.0 | 0.00 | 0.00 | 0.00 | 100 | 1019.1 |
| 20260503175944 | 66 | 29 | 0.0 | 0.0 | 0.00 | 0.00 | 0.00 | 100 | 1018.8 |
| 20260503175429 | 66 | 40 | 0.0 | 0.0 | 0.00 | 0.00 | 0.00 | 100 | 1018.8 |
| 20260503174956 | 66 | 30 | 0.0 | 0.0 | 0.00 | 0.00 | 0.00 | 100 | 1018.8 |
| 20260503174442 | 66 | 28 | 0.0 | 0.0 | 0.00 | 0.00 | 0.00 | 100 | 1018.8 |
| 20260503173929 | 66 | 23 | 0.0 | 0.0 | 0.00 | 0.00 | 0.00 | 100 | 1018.8 |
| 20260503173444 | 66 | 20 | 0.0 | 0.0 | 0.00 | 0.00 | 0.00 | 100 | 1018.8 |
| 20260503172932 | 66 | 22 | 1.0 | 0.0 | 0.00 | 0.00 | 0.00 | 100 | 1018.6 |
| 20260503172441 | 66 | 318 | 0.0 | 0.0 | 0.00 | 0.00 | 0.00 | 100 | 1018.8 |
| 20260503171944 | 66 | 17 | 2.0 | 0.0 | 0.00 | 0.00 | 0.00 | 100 | 1018.7 |
| 20260503171440 | 66 | 28 | 0.0 | 0.0 | 0.00 | 0.00 | 0.00 | 100 | 1018.6 |
| 20260503170947 | 66 | 41 | 0.0 | 0.0 | 0.00 | 0.00 | 0.00 | 100 | 1018.5 |
| 20260503170438 | 66 | 135 | 1.0 | 0.0 | 0.00 | 0.00 | 0.00 | 1 | 1018.5 |
| 20260503150946 | 68 | 359 | 8.0 | 0.0 | 0.00 | 0.00 | 0.00 | 100 | 1019.1 |
| 20260503150423 | 68 | 244 | 0.0 | 0.0 | 0.00 | 0.00 | 0.00 | 100 | 1019.0 |
| 20260503130952 | 69 | 49 | 1.0 | 0.0 | 0.00 | 0.00 | 0.00 | 100 | 1020.3 |
| 20260503130428 | 69 | 265 | 2.0 | 0.0 | 0.00 | 0.00 | 0.00 | 100 | 1020.4 |
| 20260503110454 | 68 | 321 | 2.0 | 0.0 | 0.00 | 0.00 | 0.00 | 67 | 1020.8 |
| 20260503090438 | 66 | 337 | 0.0 | 0.0 | 0.00 | 0.00 | 0.00 | 70 | 1021.6 |
| 20260503081505 | 67 | 330 | 5.0 | 0.0 | 0.00 | 0.00 | 0.00 | 71 | 1021.5 |
| 20260503080954 | 67 | 337 | 1.0 | 0.0 | 0.00 | 0.00 | 0.00 | 71 | 1021.5 |
| 20260503080435 | 67 | 337 | 3.0 | 0.0 | 0.00 | 0.00 | 0.00 | 72 | 1021.5 |
| 20260503072944 | 65 | 153 | 0.0 | 0.0 | 0.00 | 0.00 | 0.00 | 63 | 1021.8 |
| 20260503072429 | 65 | 146 | 0.0 | 0.0 | 0.00 | 0.00 | 0.00 | 64 | 1021.8 |
| 20260503071940 | 65 | 160 | 2.0 | 0.0 | 0.00 | 0.00 | 0.00 | 66 | 1021.8 |
| 20260503071437 | 65 | 119 | 2.0 | 0.0 | 0.00 | 0.00 | 0.00 | 68 | 1021.8 |
| 20260503070947 | 65 | 112 | 1.0 | 0.0 | 0.00 | 0.00 | 0.00 | 70 | 1021.9 |
| 20260503070444 | 65 | 63 | 0.0 | 0.0 | 0.00 | 0.00 | 0.00 | 70 | 1021.9 |
| 20260503054937 | 59 | 55 | 3.0 | 0.0 | 0.00 | 0.00 | 0.00 | 87 | 1021.9 |
| 20260503054433 | 59 | 47 | 3.0 | 0.0 | 0.00 | 0.00 | 0.00 | 87 | 1021.9 |
| 20260503053941 | 59 | 54 | 2.0 | 0.0 | 0.00 | 0.00 | 0.00 | 88 | 1021.9 |
| 20260503053452 | 58 | 57 | 2.0 | 0.0 | 0.00 | 0.00 | 0.00 | 88 | 1021.9 |
| 20260503052938 | 58 | 61 | 2.0 | 0.0 | 0.00 | 0.00 | 0.00 | 89 | 1022.0 |
| 20260503052428 | 58 | 60 | 3.0 | 0.0 | 0.00 | 0.00 | 0.00 | 90 | 1021.8 |
| 20260503051938 | 57 | 57 | 3.0 | 0.0 | 0.00 | 0.00 | 0.00 | 91 | 1021.8 |
| 20260503051428 | 57 | 66 | 2.0 | 0.0 | 0.00 | 0.00 | 0.00 | 93 | 1021.7 |
| 20260503050950 | 57 | 70 | 2.0 | 0.0 | 0.00 | 0.00 | 0.00 | 94 | 1021.7 |
| 20260503050446 | 56 | 88 | 2.0 | 0.0 | 0.00 | 0.00 | 0.00 | 96 | 1021.7 |
| 20260503045935 | 55 | 164 | 2.0 | 0.0 | 0.00 | 0.00 | 0.00 | 98 | 1021.6 |
| 20260503045444 | 55 | 186 | 3.0 | 0.0 | 0.00 | 0.00 | 0.00 | 100 | 1021.5 |
| 20260503044955 | 55 | 197 | 5.0 | 0.0 | 0.00 | 0.00 | 0.00 | 100 | 1021.5 |
| 20260503044506 | 54 | 174 | 3.0 | 0.0 | 0.00 | 0.00 | 0.00 | 100 | 1021.4 |
| 20260503043929 | 53 | 212 | 3.0 | 0.0 | 0.00 | 0.00 | 0.00 | 100 | 1021.4 |
| 20260503043457 | 53 | 98 | 4.0 | 0.0 | 0.00 | 0.00 | 0.00 | 100 | 1021.4 |
| 20260503042927 | 53 | 109 | 4.0 | 0.0 | 0.00 | 0.00 | 0.00 | 100 | 1021.4 |
| 20260503042452 | 53 | 105 | 4.0 | 0.0 | 0.00 | 0.00 | 0.00 | 100 | 1021.4 |
| 20260503041942 | 53 | 100 | 4.0 | 0.0 | 0.00 | 0.00 | 0.00 | 100 | 1021.4 |
| 20260503041439 | 53 | 95 | 3.0 | 0.0 | 0.00 | 0.00 | 0.00 | 100 | 1021.3 |
| 20260503040948 | 52 | 94 | 3.0 | 0.0 | 0.00 | 0.00 | 0.00 | 100 | 1021.2 |
| 20260503040427 | 52 | 94 | 4.0 | 0.0 | 0.00 | 0.00 | 0.00 | 100 | 1021.2 |
| 20260503035942 | 53 | 99 | 3.0 | 0.0 | 0.00 | 0.00 | 0.00 | 100 | 1021.2 |
| 20260503035432 | 52 | 94 | 3.0 | 0.0 | 0.00 | 0.00 | 0.00 | 100 | 1021.2 |
| 20260503034928 | 52 | 101 | 3.0 | 0.0 | 0.00 | 0.00 | 0.00 | 100 | 1021.2 |
| 20260503034502 | 51 | 106 | 3.0 | 0.0 | 0.00 | 0.00 | 0.00 | 100 | 1021.1 |
| 20260503033934 | 51 | 118 | 4.0 | 0.0 | 0.00 | 0.00 | 0.00 | 100 | 1021.0 |
| 20260503033430 | 50 | 106 | 3.0 | 0.0 | 0.00 | 0.00 | 0.00 | 100 | 1021.2 |